Back to catalog

COSMOS 1506

AliveMilitaryPO
NORAD 14450·PAYLOAD·🇷🇺 Russia

Launched Oct 26, 1983 from Plesetsk Cosmodrome

Loading…

Next Passes (next 24 hours)

TLE

FreshSource: Space-Track

Epoch: Sep 14, 2026, 15:37 UTC

1 14450U 83108A   26257.65089206  .00000058  00000-0  42475-4 0  9991
2 14450  82.9319 205.0002 0044167 110.3512  63.6193 13.76547866969962

Track COSMOS 1506 in real time with AllMySat

Download on the App Store